QPF
0.03 0.04 0.03 0.01 0.01 0.01 0.02 0.01 0.00 0.00 0.00 0.01 0.01 0.01 0.00 0.00 0.00 0.00 0.00 0.00 0.00 0.00 0.00 0.00 0.00 0.00 0.00 0.00 0.00 0.00 0.00 0.00 0.00 0.00 0.00 0.00 0.00 0.00 0.00 0.00 0.00 0.00 0.00 0.00
0.04 0.03 0.01 0.01 0.01 0.02 0.02 0.02 0.01 0.01 0.00 0.01 0.01 0.01 0.00 0.00 0.00 0.00 0.00 0.00 0.00 0.00 0.00 0.00 0.00 0.00 0.00 0.00 0.00 0.00 0.00 0.00 0.00 0.01 0.01 0.00 0.00 0.00 0.00 0.00 0.00 0.00 0.00 0.00
0.03 0.02 0.01 0.01 0.02 0.02 0.03 0.04 0.03 0.02 0.01 0.01 0.01 0.01 0.01 0.00 0.00 0.00 0.00 0.00 0.00 0.00 0.00 0.00 0.00 0.00 0.00 0.00 0.00 0.00 0.00 0.00 0.00 0.00 0.01 0.00 0.00 0.00 0.00 0.00 0.00 0.00 0.00 0.00
0.02 0.01 0.01 0.02 0.02 0.02 0.02 0.03 0.04 0.04 0.04 0.03 0.02 0.02 0.01 0.00 0.00 0.00 0.00 0.00 0.00 0.00 0.00 0.00 0.00 0.00 0.00 0.00 0.00 0.00 0.01 0.01 0.01 0.01 0.01 0.01 0.01 0.00 0.00 0.00 0.00 0.00 0.00 0.00
0.02 0.02 0.02 0.02 0.01 0.01 0.01 0.02 0.04 0.05 0.07 0.06 0.04 0.03 0.01 0.00 0.00 0.00 0.00 0.00 0.00 0.00 0.00 0.00 0.00 0.00 0.00 0.00 0.00 0.00 0.01 0.01 0.01 0.01 0.01 0.01 0.01 0.00 0.00 0.00 0.00 0.00 0.00 0.00
0.02 0.02 0.02 0.01 0.01 0.01 0.01 0.03 0.05 0.07 0.10 0.11 0.04 0.03 0.01 0.00 0.00 0.00 0.00 0.00 0.00 0.00 0.00 0.00 0.00 0.00 0.00 0.00 0.00 0.01 0.01 0.01 0.01 0.01 0.01 0.01 0.01 0.00 0.00 0.00 0.00 0.00 0.00 0.00
0.03 0.02 0.02 0.02 0.02 0.02 0.03 0.06 0.10 0.11 0.12 0.07 0.02 0.02 0.01 0.00 0.00 0.00 0.00 0.00 0.00 0.00 0.00 0.00 0.00 0.00 0.00 0.00 0.00 0.01 0.01 0.01 0.01 0.01 0.01 0.01 0.01 0.01 0.00 0.00 0.00 0.00 0.00 0.00
0.05 0.03 0.03 0.03 0.02 0.02 0.02 0.05 0.08 0.07 0.05 0.02 0.01 0.01 0.00 0.00 0.00 0.00 0.00 0.00 0.00 0.00 0.00 0.00 0.00 0.00 0.00 0.00 0.00 0.00 0.00 0.01 0.01 0.01 0.01 0.02 0.02 0.02 0.01 0.01 0.01 0.00 0.00 0.00
0.05 0.03 0.02 0.02 0.01 0.02 0.03 0.03 0.04 0.07 0.06 0.03 0.01 0.01 0.01 0.00 0.00 0.00 0.00 0.00 0.00 0.00 0.00 0.00 0.00 0.00 0.00 0.00 0.00 0.00 0.00 0.00 0.00 0.01 0.01 0.01 0.01 0.02 0.02 0.02 0.02 0.01 0.01 0.00
0.07 0.07 0.04 0.03 0.03 0.03 0.03 0.03 0.05 0.08 0.08 0.05 0.02 0.01 0.01 0.01 0.01 0.00 0.00 0.00 0.00 0.00 0.00 0.00 0.00 0.00 0.00 0.00 0.01 0.01 0.01 0.01 0.00 0.00 0.01 0.01 0.01 0.01 0.02 0.02 0.03 0.03 0.02 0.02
0.07 0.08 0.05 0.04 0.04 0.04 0.04 0.05 0.07 0.08 0.07 0.06 0.04 0.02 0.02 0.01 0.01 0.01 0.01 0.00 0.00 0.00 0.01 0.01 0.01 0.01 0.02 0.02 0.02 0.02 0.02 0.02 0.02 0.02 0.02 0.02 0.01 0.01 0.01 0.01 0.02 0.02 0.02 0.02
0.04 0.07 0.05 0.03 0.02 0.03 0.04 0.05 0.06 0.08 0.07 0.06 0.05 0.03 0.02 0.01 0.01 0.01 0.01 0.01 0.01 0.01 0.01 0.01 0.01 0.01 0.01 0.01 0.02 0.02 0.02 0.02 0.02 0.02 0.02 0.02 0.02 0.02 0.02 0.01 0.01 0.01 0.01 0.02
0.04 0.06 0.07 0.05 0.03 0.02 0.04 0.04 0.05 0.06 0.06 0.05 0.05 0.03 0.02 0.01 0.01 0.01 0.00 0.00 0.00 0.00 0.00 0.00 0.00 0.00 0.00 0.00 0.00 0.01 0.01 0.01 0.01 0.01 0.01 0.01 0.02 0.02 0.02 0.02 0.01 0.01 0.01 0.01
0.06 0.05 0.04 0.03 0.02 0.02 0.02 0.02 0.02 0.05 0.06 0.04 0.02 0.02 0.01 0.01 0.01 0.01 0.00 0.00 0.00 0.00 0.00 0.00 0.00 0.00 0.00 0.00 0.00 0.00 0.00 0.00 0.00 0.00 0.01 0.01 0.01 0.01 0.01 0.01 0.01 0.01 0.01 0.01
0.06 0.06 0.02 0.01 0.01 0.02 0.02 0.01 0.01 0.02 0.02 0.02 0.01 0.00 0.01 0.01 0.02 0.01 0.01 0.01 0.00 0.00 0.00 0.00 0.00 0.00 0.00 0.00 0.00 0.00 0.00 0.00 0.00 0.00 0.00 0.00 0.00 0.01 0.01 0.01 0.01 0.01 0.01 0.01
0.04 0.05 0.03 0.02 0.01 0.01 0.02 0.02 0.02 0.02 0.01 0.01 0.00 0.01 0.01 0.02 0.02 0.02 0.01 0.01 0.01 0.01 0.01 0.00 0.00 0.00 0.00 0.00 0.00 0.00 0.00 0.00 0.00 0.00 0.00 0.00 0.00 0.00 0.00 0.00 0.01 0.01 0.01 0.01
0.04 0.06 0.05 0.03 0.02 0.03 0.03 0.02 0.02 0.02 0.02 0.01 0.02 0.02 0.02 0.02 0.02 0.02 0.02 0.02 0.02 0.01 0.01 0.01 0.01 0.00 0.00 0.00 0.00 0.00 0.00 0.00 0.00 0.00 0.00 0.00 0.00 0.00 0.00 0.00 0.00 0.01 0.01 0.01
0.04 0.06 0.07 0.05 0.03 0.05 0.02 0.01 0.01 0.01 0.01 0.02 0.02 0.03 0.02 0.02 0.02 0.02 0.02 0.02 0.02 0.02 0.02 0.01 0.01 0.01 0.01 0.00 0.00 0.00 0.00 0.00 0.00 0.00 0.00 0.01 0.01 0.01 0.01 0.01 0.01 0.01 0.01 0.01
0.03 0.06 0.09 0.07 0.04 0.02 0.00 0.00 0.01 0.01 0.02 0.02 0.02 0.02 0.02 0.03 0.02 0.01 0.01 0.01 0.02 0.02 0.02 0.03 0.02 0.02 0.01 0.01 0.00 0.00 0.00 0.01 0.01 0.01 0.01 0.01 0.01 0.01 0.01 0.01 0.01 0.01 0.01 0.01
0.02 0.05 0.09 0.09 0.07 0.03 0.01 0.01 0.01 0.01 0.02 0.02 0.02 0.02 0.02 0.02 0.01 0.00 0.01 0.01 0.01 0.01 0.01 0.02 0.02 0.02 0.01 0.01 0.00 0.00 0.00 0.01 0.01 0.01 0.01 0.01 0.01 0.01 0.02 0.02 0.02 0.02 0.02 0.02
0.02 0.06 0.08 0.07 0.06 0.02 0.01 0.01 0.01 0.02 0.02 0.01 0.01 0.01 0.01 0.01 0.01 0.01 0.00 0.00 0.01 0.01 0.01 0.01 0.01 0.01 0.01 0.01 0.01 0.01 0.01 0.01 0.01 0.01 0.01 0.01 0.01 0.01 0.02 0.02 0.02 0.03 0.03 0.03
0.01 0.02 0.04 0.04 0.05 0.03 0.01 0.01 0.02 0.02 0.01 0.01 0.01 0.01 0.01 0.01 0.01 0.01 0.01 0.01 0.00 0.00 0.00 0.00 0.00 0.01 0.01 0.01 0.01 0.01 0.01 0.02 0.01 0.01 0.01 0.01 0.01 0.01 0.02 0.02 0.02 0.02 0.02 0.02
0.00 0.01 0.01 0.02 0.02 0.01 0.01 0.01 0.02 0.02 0.02 0.01 0.01 0.01 0.01 0.01 0.01 0.01 0.01 0.01 0.01 0.00 0.00 0.00 0.00 0.00 0.01 0.01 0.01 0.01 0.02 0.02 0.02 0.02 0.02 0.02 0.02 0.01 0.02 0.02 0.02 0.02 0.02 0.02
0.00 0.00 0.01 0.01 0.01 0.01 0.01 0.02 0.02 0.01 0.01 0.01 0.01 0.01 0.01 0.01 0.01 0.01 0.00 0.00 0.00 0.00 0.00 0.00 0.01 0.01 0.01 0.01 0.01 0.02 0.02 0.02 0.02 0.02 0.02 0.03 0.03 0.02 0.02 0.02 0.02 0.03 0.03 0.03
0.01 0.01 0.01 0.01 0.01 0.01 0.01 0.01 0.01 0.01 0.01 0.01 0.00 0.00 0.00 0.00 0.00 0.00 0.00 0.00 0.00 0.00 0.00 0.00 0.01 0.01 0.02 0.02 0.01 0.01 0.02 0.02 0.02 0.02 0.02 0.02 0.02 0.02 0.02 0.02 0.03 0.03 0.03 0.03
0.00 0.01 0.01 0.01 0.01 0.01 0.01 0.01 0.01 0.01 0.01 0.00 0.00 0.00 0.00 0.00 0.01 0.01 0.00 0.00 0.00 0.00 0.00 0.00 0.01 0.01 0.02 0.02 0.01 0.01 0.01 0.01 0.01 0.02 0.02 0.02 0.02 0.02 0.03 0.02 0.03 0.03 0.03 0.04
MSLP
1014.23 1014.18 1014.14 1014.15 1014.24 1014.41 1014.67 1014.99 1015.32 1015.62 1015.84 1015.94 1015.91 1015.76 1015.51 1015.20 1014.89 1014.59 1014.33 1014.12 1013.94 1013.79 1013.65 1013.49 1013.35 1013.21 1013.12 1013.09 1013.15 1013.30 1013.57 1013.91 1014.31 1014.73 1015.14 1015.51 1015.83 1016.08 1016.28 1016.45 1016.61 1016.77 1016.96 1017.18
1014.41 1014.27 1014.14 1014.05 1014.06 1014.20 1014.46 1014.82 1015.24 1015.64 1015.95 1016.14 1016.15 1016.01 1015.72 1015.34 1014.92 1014.51 1014.14 1013.83 1013.58 1013.35 1013.16 1012.96 1012.76 1012.58 1012.42 1012.34 1012.34 1012.45 1012.68 1013.02 1013.43 1013.88 1014.33 1014.74 1015.09 1015.38 1015.59 1015.76 1015.90 1016.04 1016.21 1016.41
1014.60 1014.41 1014.20 1014.03 1013.98 1014.07 1014.33 1014.72 1015.18 1015.63 1016.00 1016.21 1016.23 1016.05 1015.70 1015.22 1014.70 1014.18 1013.71 1013.32 1013.00 1012.74 1012.51 1012.30 1012.08 1011.87 1011.69 1011.57 1011.53 1011.61 1011.82 1012.14 1012.54 1013.01 1013.47 1013.91 1014.29 1014.59 1014.82 1014.98 1015.12 1015.26 1015.41 1015.60
1014.81 1014.57 1014.29 1014.07 1013.97 1014.03 1014.28 1014.67 1015.15 1015.61 1015.98 1016.17 1016.14 1015.89 1015.45 1014.88 1014.25 1013.63 1013.08 1012.63 1012.28 1012.01 1011.78 1011.58 1011.38 1011.18 1010.99 1010.86 1010.80 1010.85 1011.02 1011.31 1011.70 1012.14 1012.60 1013.03 1013.41 1013.72 1013.96 1014.14 1014.28 1014.42 1014.57 1014.76
1015.02 1014.74 1014.42 1014.16 1014.02 1014.06 1014.28 1014.66 1015.12 1015.57 1015.90 1016.03 1015.93 1015.59 1015.05 1014.37 1013.65 1012.96 1012.35 1011.87 1011.52 1011.26 1011.08 1010.91 1010.76 1010.59 1010.42 1010.29 1010.22 1010.23 1010.36 1010.60 1010.94 1011.33 1011.75 1012.16 1012.52 1012.82 1013.06 1013.25 1013.41 1013.57 1013.73 1013.93
1015.26 1014.93 1014.58 1014.28 1014.11 1014.14 1014.34 1014.70 1015.12 1015.51 1015.77 1015.83 1015.64 1015.21 1014.57 1013.81 1013.02 1012.28 1011.65 1011.18 1010.84 1010.64 1010.50 1010.41 1010.30 1010.18 1010.05 1009.93 1009.84 1009.83 1009.91 1010.08 1010.34 1010.66 1011.01 1011.35 1011.67 1011.95 1012.18 1012.39 1012.57 1012.75 1012.94 1013.15
1015.55 1015.17 1014.78 1014.46 1014.27 1014.27 1014.45 1014.77 1015.14 1015.46 1015.65 1015.61 1015.33 1014.82 1014.11 1013.30 1012.47 1011.72 1011.11 1010.66 1010.38 1010.23 1010.16 1010.13 1010.09 1010.03 1009.92 1009.81 1009.72 1009.66 1009.68 1009.77 1009.94 1010.17 1010.43 1010.70 1010.97 1011.21 1011.43 1011.64 1011.84 1012.05 1012.27 1012.49
1015.90 1015.48 1015.06 1014.72 1014.51 1014.49 1014.63 1014.90 1015.20 1015.45 1015.54 1015.42 1015.07 1014.49 1013.75 1012.92 1012.10 1011.38 1010.81 1010.42 1010.20 1010.11 1010.11 1010.13 1010.14 1010.11 1010.03 1009.93 1009.81 1009.72 1009.68 1009.70 1009.78 1009.91 1010.09 1010.28 1010.48 1010.68 1010.88 1011.09 1011.30 1011.52 1011.76 1011.99
1016.34 1015.88 1015.44 1015.08 1014.86 1014.81 1014.91 1015.12 1015.34 1015.49 1015.50 1015.30 1014.89 1014.28 1013.53 1012.72 1011.96 1011.29 1010.79 1010.47 1010.31 1010.27 1010.31 1010.37 1010.41 1010.40 1010.33 1010.21 1010.08 1009.96 1009.87 1009.83 1009.84 1009.89 1009.99 1010.11 1010.26 1010.41 1010.59 1010.78 1010.99 1011.22 1011.45 1011.67
1016.83 1016.37 1015.92 1015.56 1015.33 1015.25 1015.30 1015.43 1015.57 1015.62 1015.54 1015.27 1014.81 1014.18 1013.46 1012.71 1012.01 1011.43 1011.01 1010.75 1010.64 1010.65 1010.71 1010.77 1010.80 1010.78 1010.70 1010.58 1010.43 1010.28 1010.17 1010.09 1010.05 1010.07 1010.11 1010.19 1010.29 1010.41 1010.56 1010.73 1010.92 1011.13 1011.34 1011.53
1017.37 1016.92 1016.49 1016.15 1015.92 1015.82 1015.81 1015.86 1015.89 1015.83 1015.65 1015.30 1014.80 1014.18 1013.49 1012.81 1012.20 1011.71 1011.37 1011.17 1011.10 1011.12 1011.16 1011.21 1011.21 1011.15 1011.04 1010.90 1010.75 1010.60 1010.48 1010.40 1010.35 1010.35 1010.39 1010.44 1010.52 1010.62 1010.75 1010.89 1011.05 1011.22 1011.38 1011.52
1017.92 1017.52 1017.14 1016.83 1016.61 1016.48 1016.41 1016.35 1016.26 1016.09 1015.79 1015.36 1014.83 1014.21 1013.56 1012.95 1012.43 1012.03 1011.76 1011.60 1011.55 1011.55 1011.56 1011.55 1011.50 1011.40 1011.26 1011.09 1010.93 1010.80 1010.70 1010.64 1010.63 1010.65 1010.69 1010.76 1010.84 1010.93 1011.03 1011.14 1011.26 1011.39 1011.49 1011.58
1018.46 1018.14 1017.83 1017.56 1017.35 1017.18 1017.04 1016.87 1016.65 1016.34 1015.93 1015.41 1014.83 1014.20 1013.59 1013.05 1012.60 1012.27 1012.05 1011.93 1011.88 1011.84 1011.80 1011.73 1011.61 1011.45 1011.27 1011.09 1010.94 1010.82 1010.76 1010.75 1010.78 1010.84 1010.92 1011.02 1011.11 1011.20 1011.29 1011.39 1011.47 1011.55 1011.61 1011.64
1019.00 1018.76 1018.52 1018.30 1018.09 1017.88 1017.65 1017.36 1017.00 1016.55 1016.01 1015.40 1014.76 1014.12 1013.54 1013.04 1012.66 1012.38 1012.20 1012.09 1012.02 1011.94 1011.84 1011.70 1011.51 1011.30 1011.08 1010.89 1010.74 1010.66 1010.64 1010.67 1010.76 1010.87 1011.00 1011.12 1011.24 1011.34 1011.43 1011.52 1011.58 1011.63 1011.66 1011.66
1019.57 1019.39 1019.20 1019.00 1018.77 1018.49 1018.16 1017.75 1017.25 1016.66 1016.00 1015.31 1014.61 1013.96 1013.39 1012.93 1012.59 1012.35 1012.19 1012.08 1011.98 1011.86 1011.70 1011.48 1011.24 1010.98 1010.73 1010.53 1010.39 1010.33 1010.35 1010.43 1010.56 1010.72 1010.88 1011.03 1011.17 1011.29 1011.39 1011.48 1011.54 1011.59 1011.61 1011.60
1020.19 1020.04 1019.85 1019.63 1019.34 1018.99 1018.54 1018.01 1017.37 1016.66 1015.90 1015.13 1014.40 1013.73 1013.18 1012.74 1012.43 1012.22 1012.07 1011.94 1011.81 1011.64 1011.42 1011.16 1010.86 1010.57 1010.30 1010.09 1009.96 1009.92 1009.97 1010.07 1010.23 1010.41 1010.59 1010.76 1010.91 1011.05 1011.16 1011.26 1011.34 1011.41 1011.45 1011.47
1020.87 1020.68 1020.45 1020.15 1019.78 1019.32 1018.76 1018.09 1017.35 1016.54 1015.71 1014.90 1014.14 1013.49 1012.95 1012.54 1012.25 1012.04 1011.89 1011.75 1011.58 1011.37 1011.11 1010.80 1010.48 1010.16 1009.89 1009.68 1009.56 1009.52 1009.58 1009.69 1009.84 1010.02 1010.20 1010.36 1010.52 1010.65 1010.78 1010.91 1011.02 1011.12 1011.22 1011.28
1021.57 1021.29 1020.95 1020.53 1020.03 1019.44 1018.77 1018.01 1017.18 1016.32 1015.46 1014.64 1013.90 1013.27 1012.77 1012.39 1012.11 1011.91 1011.74 1011.57 1011.37 1011.13 1010.83 1010.50 1010.16 1009.84 1009.57 1009.37 1009.25 1009.22 1009.27 1009.37 1009.50 1009.65 1009.79 1009.93 1010.07 1010.20 1010.33 1010.48 1010.63 1010.78 1010.93 1011.06
1022.20 1021.77 1021.27 1020.70 1020.05 1019.34 1018.57 1017.74 1016.88 1016.01 1015.17 1014.39 1013.70 1013.12 1012.67 1012.32 1012.06 1011.85 1011.66 1011.46 1011.23 1010.95 1010.63 1010.28 1009.95 1009.64 1009.38 1009.21 1009.10 1009.08 1009.11 1009.19 1009.28 1009.38 1009.48 1009.57 1009.66 1009.77 1009.89 1010.04 1010.22 1010.41 1010.61 1010.80
1022.61 1022.01 1021.33 1020.60 1019.82 1019.00 1018.16 1017.30 1016.45 1015.62 1014.85 1014.15 1013.55 1013.05 1012.65 1012.34 1012.09 1011.87 1011.66 1011.42 1011.15 1010.84 1010.51 1010.16 1009.84 1009.55 1009.34 1009.19 1009.11 1009.10 1009.13 1009.17 1009.22 1009.27 1009.30 1009.32 1009.35 1009.41 1009.51 1009.64 1009.83 1010.04 1010.27 1010.51
1022.66 1021.89 1021.05 1020.18 1019.30 1018.41 1017.54 1016.71 1015.91 1015.17 1014.51 1013.92 1013.43 1013.02 1012.69 1012.41 1012.17 1011.94 1011.70 1011.42 1011.11 1010.78 1010.43 1010.10 1009.80 1009.56 1009.39 1009.29 1009.25 1009.25 1009.28 1009.31 1009.32 1009.30 1009.26 1009.21 1009.16 1009.15 1009.18 1009.28 1009.43 1009.64 1009.87 1010.12
1022.23 1021.33 1020.38 1019.42 1018.48 1017.59 1016.75 1015.97 1015.28 1014.67 1014.14 1013.68 1013.31 1013.00 1012.73 1012.49 1012.26 1012.01 1011.73 1011.42 1011.08 1010.73 1010.38 1010.07 1009.80 1009.61 1009.49 1009.45 1009.45 1009.48 1009.52 1009.53 1009.50 1009.42 1009.31 1009.17 1009.04 1008.94 1008.89 1008.91 1009.00 1009.16 1009.37 1009.61
1021.28 1020.32 1019.33 1018.35 1017.43 1016.58 1015.82 1015.16 1014.59 1014.12 1013.74 1013.42 1013.16 1012.95 1012.74 1012.53 1012.30 1012.04 1011.73 1011.39 1011.03 1010.66 1010.32 1010.03 1009.80 1009.66 1009.60 1009.61 1009.66 1009.72 1009.77 1009.77 1009.70 1009.57 1009.38 1009.16 1008.92 1008.71 1008.55 1008.47 1008.48 1008.56 1008.71 1008.91
1019.88 1018.93 1017.97 1017.06 1016.22 1015.48 1014.84 1014.33 1013.91 1013.59 1013.34 1013.15 1013.00 1012.86 1012.71 1012.52 1012.30 1012.02 1011.70 1011.34 1010.96 1010.59 1010.26 1010.00 1009.81 1009.71 1009.70 1009.74 1009.82 1009.90 1009.95 1009.92 1009.82 1009.64 1009.37 1009.05 1008.71 1008.39 1008.11 1007.92 1007.81 1007.79 1007.87 1008.02
1018.19 1017.33 1016.48 1015.70 1015.01 1014.42 1013.95 1013.58 1013.32 1013.13 1013.01 1012.92 1012.85 1012.77 1012.66 1012.49 1012.28 1011.99 1011.67 1011.30 1010.92 1010.57 1010.25 1010.01 1009.84 1009.77 1009.77 1009.83 1009.91 1009.98 1010.01 1009.95 1009.79 1009.54 1009.20 1008.78 1008.34 1007.90 1007.51 1007.19 1006.97 1006.85 1006.84 1006.93
1016.47 1015.75 1015.08 1014.47 1013.97 1013.56 1013.26 1013.05 1012.92 1012.85 1012.82 1012.81 1012.79 1012.75 1012.66 1012.52 1012.30 1012.03 1011.71 1011.36 1010.99 1010.64 1010.34 1010.10 1009.94 1009.86 1009.84 1009.87 1009.92 1009.94 1009.90 1009.78 1009.56 1009.23 1008.80 1008.30 1007.76 1007.22 1006.72 1006.30 1005.97 1005.77 1005.69 1005.73
Thickness
5515 5519 5530 5543 5549 5556 5558 5564 5570 5580 5590 5593 5599 5610 5624 5632 5636 5642 5648 5653 5659 5667 5674 5678 5680 5682 5682 5683 5683 5684 5683 5682 5679 5677 5674 5672 5672 5671 5670 5669 5668 5666 5664 5662
5497 5507 5523 5529 5534 5538 5542 5549 5557 5567 5575 5580 5585 5596 5612 5621 5629 5637 5643 5648 5655 5661 5666 5670 5673 5675 5677 5678 5679 5679 5680 5679 5678 5677 5675 5673 5671 5669 5668 5666 5665 5663 5661 5660
5485 5500 5510 5514 5518 5523 5530 5536 5545 5551 5557 5563 5567 5581 5600 5614 5621 5630 5637 5644 5649 5654 5658 5663 5665 5668 5670 5672 5674 5676 5676 5676 5675 5673 5669 5666 5664 5663 5662 5662 5661 5660 5658 5656
5473 5486 5494 5500 5507 5513 5519 5530 5533 5536 5536 5541 5550 5556 5588 5602 5610 5621 5630 5635 5641 5647 5651 5654 5657 5660 5662 5665 5667 5669 5670 5670 5670 5667 5664 5662 5661 5660 5661 5659 5657 5655 5653 5651
5465 5476 5481 5488 5499 5504 5510 5518 5519 5522 5522 5523 5533 5535 5570 5588 5600 5614 5624 5629 5634 5638 5641 5645 5649 5652 5654 5656 5658 5660 5661 5662 5662 5661 5660 5658 5656 5656 5654 5651 5649 5647 5646 5644
5457 5466 5474 5482 5491 5496 5500 5503 5504 5504 5504 5507 5529 5525 5552 5570 5595 5607 5615 5619 5623 5627 5630 5634 5637 5639 5641 5644 5646 5649 5651 5653 5654 5654 5653 5652 5651 5649 5646 5644 5642 5640 5638 5636
5447 5457 5466 5474 5477 5483 5488 5485 5478 5479 5483 5494 5519 5520 5549 5572 5584 5594 5601 5605 5609 5612 5615 5618 5621 5624 5628 5631 5635 5638 5641 5642 5643 5644 5644 5644 5643 5642 5639 5637 5634 5631 5629 5628
5433 5442 5459 5466 5472 5475 5478 5481 5475 5471 5474 5486 5503 5515 5547 5563 5569 5577 5584 5590 5593 5596 5599 5603 5607 5610 5614 5618 5622 5625 5628 5630 5632 5633 5634 5634 5633 5632 5630 5628 5626 5623 5621 5620
5428 5438 5453 5459 5467 5470 5469 5471 5480 5474 5471 5474 5487 5505 5529 5549 5557 5562 5568 5572 5576 5580 5584 5587 5591 5595 5599 5603 5607 5611 5614 5617 5619 5620 5622 5622 5621 5620 5619 5618 5615 5613 5611 5610
5423 5426 5440 5449 5456 5461 5466 5468 5463 5460 5457 5461 5478 5494 5518 5537 5543 5548 5552 5555 5559 5563 5567 5572 5575 5579 5583 5587 5592 5596 5599 5602 5605 5606 5607 5608 5608 5608 5607 5605 5603 5601 5600 5598
5418 5418 5427 5436 5443 5450 5453 5456 5458 5456 5454 5458 5465 5493 5516 5524 5530 5532 5535 5539 5542 5545 5548 5552 5557 5561 5564 5569 5573 5578 5582 5586 5588 5591 5592 5592 5592 5592 5592 5590 5589 5588 5587 5585
5414 5411 5412 5424 5437 5443 5446 5450 5450 5445 5443 5452 5465 5486 5509 5508 5511 5514 5516 5519 5522 5525 5529 5533 5537 5542 5547 5551 5556 5560 5564 5568 5571 5574 5575 5576 5577 5576 5575 5575 5574 5573 5571 5570
5408 5404 5398 5407 5419 5428 5433 5437 5442 5440 5436 5437 5446 5472 5494 5492 5496 5498 5500 5503 5506 5509 5513 5516 5521 5525 5530 5534 5538 5542 5546 5550 5553 5555 5557 5558 5559 5559 5559 5558 5557 5556 5555 5554
5406 5394 5395 5399 5410 5417 5420 5427 5432 5431 5427 5428 5442 5462 5479 5481 5482 5484 5486 5488 5490 5494 5497 5501 5505 5509 5513 5516 5520 5525 5528 5532 5535 5537 5539 5540 5541 5541 5541 5540 5539 5538 5538 5536
5392 5384 5386 5394 5401 5404 5410 5417 5422 5424 5429 5430 5445 5453 5468 5469 5469 5471 5473 5474 5476 5481 5484 5488 5490 5493 5496 5500 5503 5507 5510 5513 5516 5518 5520 5521 5521 5522 5522 5521 5520 5520 5519 5518
5381 5377 5379 5382 5391 5395 5400 5412 5416 5420 5423 5425 5433 5444 5458 5456 5456 5458 5460 5462 5463 5468 5472 5474 5476 5478 5480 5483 5486 5489 5492 5495 5497 5499 5500 5501 5502 5502 5502 5502 5501 5501 5500 5498
5369 5368 5366 5367 5376 5383 5384 5407 5412 5416 5420 5423 5428 5444 5446 5444 5446 5449 5450 5451 5453 5457 5459 5462 5463 5464 5466 5467 5469 5471 5474 5475 5477 5479 5480 5481 5482 5482 5482 5482 5481 5481 5480 5479
5362 5360 5354 5350 5355 5364 5398 5411 5411 5412 5418 5419 5425 5433 5434 5438 5438 5439 5439 5439 5442 5445 5447 5449 5449 5450 5451 5451 5453 5454 5456 5457 5459 5460 5461 5461 5462 5463 5463 5462 5462 5462 5461 5460
5362 5357 5345 5339 5340 5353 5385 5399 5401 5402 5409 5416 5417 5423 5425 5425 5422 5427 5430 5429 5430 5431 5433 5434 5435 5435 5436 5437 5437 5438 5439 5440 5442 5443 5444 5444 5445 5445 5445 5445 5444 5443 5443 5442
5356 5352 5341 5333 5337 5341 5386 5397 5395 5394 5395 5409 5408 5411 5412 5410 5409 5422 5423 5418 5417 5417 5416 5417 5419 5420 5421 5421 5422 5424 5424 5424 5425 5426 5426 5426 5427 5428 5428 5427 5426 5426 5425 5424
5342 5340 5338 5332 5332 5348 5378 5383 5386 5379 5392 5401 5400 5401 5401 5401 5406 5410 5407 5404 5403 5403 5403 5403 5403 5405 5406 5406 5406 5409 5409 5409 5408 5408 5408 5408 5409 5410 5410 5410 5409 5408 5407 5406
5333 5328 5328 5326 5330 5348 5377 5372 5373 5379 5385 5386 5387 5389 5389 5390 5390 5391 5391 5391 5390 5389 5389 5389 5389 5390 5390 5390 5391 5393 5394 5393 5391 5391 5391 5392 5392 5393 5393 5393 5393 5391 5390 5389
5335 5340 5336 5339 5350 5365 5366 5367 5368 5367 5369 5372 5373 5376 5375 5375 5377 5379 5378 5378 5378 5377 5376 5375 5375 5375 5375 5374 5376 5377 5377 5375 5375 5375 5375 5376 5376 5376 5376 5377 5376 5375 5374 5373
5332 5336 5336 5338 5351 5356 5357 5355 5355 5355 5357 5359 5359 5361 5362 5363 5365 5364 5365 5365 5364 5364 5363 5361 5360 5360 5361 5360 5360 5360 5359 5358 5359 5359 5359 5360 5360 5360 5359 5360 5360 5359 5359 5357
5328 5328 5327 5333 5344 5345 5349 5348 5347 5348 5347 5346 5347 5347 5349 5351 5352 5352 5352 5352 5351 5351 5349 5348 5347 5347 5347 5345 5344 5343 5343 5342 5343 5343 5343 5343 5343 5343 5343 5343 5343 5344 5344 5343
5329 5327 5328 5338 5341 5337 5344 5343 5339 5338 5338 5336 5335 5337 5337 5337 5339 5338 5338 5337 5336 5335 5334 5332 5332 5332 5331 5330 5329 5328 5328 5328 5328 5328 5328 5328 5327 5326 5326 5326 5327 5328 5328 5328